Starlink 30769

operational
NORAD ID: 58138 Int'l Des: 2023-162 Owner: SPXS Country: US Constellation: starlink
LEOCIRCULAR

Über Starlink 30769

Beschreibung wird geladen...

Live-Position

3D-Globus wird geladen...

Nächste Überflüge

Höhenverlauf

Altitude vs Time

uPlot chart will show altitude changes over time

Zweizeiliger Elementsatz

1 58138U 23162W 25352.04042377 -.00002011 00000-0 -13389-3 0 9996
2 58138 43.0025 217.0971 0001430 265.5889 94.4790 15.02529906120015
Epoch: 18. Dez. 2025 • Age: 29 hours

Aktueller Status

Höhe 562.7 km
Geschwindigkeit 7.59 km/s
Subsatellitenpunkt 40.75°N, 99.02°E
Startdatum 22. Okt. 2023
Alter 2.1 years
Typ internet

Technische Details

Klassifizierung Payload
Masse 730.00 kg
Trockenmasse 700.00 kg
Gesamtmasse 730.00 kg
Länge 0.30 m
Durchmesser 4.10 m
Spannweite 29.00 m
Form Box + pan
Hersteller SPXS
Bus-Typ Starlink V2M
Phasenstatus In Orbit
Besitzer/Staat SPXS/US

Große Konstellationen

Loading constellations...